Regional Weather Roundup
Issued by NWS

Home | Current Version | Previous Version | Text Only | Print | Product List | Glossary Off
Versions: 1 2 3 4 5 6 7 8 9 10 11 12 13 14 15 16 17 18 19 20 21 22 23 24 25 26 27 28 29 30 31 32 33 34 35 36 37 38 39 40 41 42 43 44 45 46 47 48 49 50

000
ASUS43 KLMK 211802
RWRKY
KENTUCKY REGIONAL WEATHER ROUNDUP
NATIONAL WEATHER SERVICE LOUISVILLE KY
200 PM EDT SUN SEP 21 2014

NOTE "FAIR" INDICATES FEW OR NO CLOUDS BELOW 12,000 FEET
WITH NO SIGNIFICANT WEATHER AND/OR OBSTRUCTIONS TO VISIBILITY.

KYZ001>023-026-027-061>063-070>075-211900-
WESTERN AND SOUTH CENTRAL KENTUCKY

CITY           SKY/WX    TMP DP  RH WIND       PRES   REMARKS
PADUCAH        SUNNY     83  54  36 NW12      30.00S
HENDERSON      SUNNY     79  50  36 NW14G21   29.97F
OWENSBORO      SUNNY     79  48  33 NW15G23   29.96S
HOPKINSVILLE   MOSUNNY   81  69  66 NW13      29.96F
BOWLING GREEN  PTSUNNY   80  67  64 W7        29.94F
GLASGOW        PTSUNNY   80  66  63 W10       29.94F
$$

KYZ024-025-028>034-038-045-046-053-211900-
NORTH CENTRAL KENTUCKY

CITY           SKY/WX    TMP DP  RH WIND       PRES   REMARKS
LOUISVILLE/SDF MOSUNNY   81  60  48 NW17      29.89S
LOUISVILLE/LOU SUNNY     80  57  45 NW15      29.89F
FORT KNOX      MOSUNNY   78  63  60 W12       29.90F
$$

KYZ035>037-039>044-047>052-055>060-089>105-211900-
NORTHEAST KENTUCKY

CITY           SKY/WX    TMP DP  RH WIND       PRES   REMARKS
LEXINGTON      MOSUNNY   82  63  52 W20G29    29.88F
COVINGTON      MOSUNNY   77  46  33 W16G25    29.86S
FRANKFORT      MOSUNNY   78  63  59 W9G20     29.87S
$$

KYZ054-064>069-076>088-106>120-211900-
SOUTHEAST KENTUCKY

CITY           SKY/WX    TMP DP  RH WIND       PRES   REMARKS
JACKSON        CLOUDY    71  66  84 VRB5      29.91F
LONDON         CLOUDY    75  66  73 W8        29.94F
SOMERSET       CLOUDY    73  64  73 W10       29.94F
MIDDLESBORO    PTSUNNY   78  67  69 S5        29.94F
MONTICELLO     MOCLDY    77  68  73 W12       29.96F
$$



USA.gov is the U.S. government's official web portal to all federal, state and local government web resources and services.